West Columbia, SC

3:51 AM EST on February 08, 2016 (GMT -0500)
Columbia Metro

Weather History for KCAE - March, 2013

Change the Weather History Date:

Tuesday, March 26, 2013

  Actual Average Record
Temperature  
Mean Temperature 43 °F 58 °F  
Max Temperature 53 °F 71 °F 88 °F (1929)
Min Temperature 33 °F 45 °F 25 °F (1983)
Degree Days  
Heating Degree Days 22 8  
Month to date heating degree days 381 274  
Since 1 July heating degree days 2101 2373  
Cooling Degree Days 0 1  
Month to date cooling degree days 10 14  
Year to date cooling degree days 35 18  
Moisture  
Dew Point 24 °F    
Average Humidity 51    
Maximum Humidity 69    
Minimum Humidity 32    
Precipitation  
Precipitation 0.00 in 0.12 in 2.64 in (1901)
Month to date precipitation 3.59 3.16  
Year to date precipitation 10.31 10.35  
Sea Level Pressure  
Sea Level Pressure 30.05 in    
Wind  
Wind Speed 10 mph (WNW)    
Max Wind Speed 22 mph    
Max Gust Speed 28 mph    
Visibility 10 miles    
Events      
T = Trace of Precipitation, MM = Missing Value Source: NWS Daily Summary

Daily Weather History Graph

Daily Weather History Graph

Search for Another Location

Airport or City:

Trip Planner

Search our weather history database for the weather conditions in past years. The results will help you decide how hot, cold, wet, or windy it might be!

Date:

Astronomy

Mar. 26, 2013 Rise Set
Actual Time 7:19 AM EDT 7:40 PM EDT
Civil Twilight 6:54 AM EDT 8:05 PM EDT
Nautical Twilight 6:25 AM EDT 8:35 PM EDT
Astronomical Twilight 5:55 AM EDT 9:05 PM EDT
Moon 7:15 PM EDT (3/26) 6:34 AM EDT (3/26)
Length of Visible Light 13h 11m
Length of Day
12h 21m
Waxing Gibbous, 99% of the Moon is Illuminated
Mar 26
Waxing Gibbous
Mar 27
Full
Apr 3
Last Quarter
Apr 10
New
Apr 18
First Quarter

Hourly Weather History & Observations

Time (EDT) Temp. Windchill Dew Point Humidity Pressure Visibility Wind Dir Wind Speed Gust Speed Precip Events Conditions
12:56 AM 39.0 °F 31.4 °F 23.0 °F 53% 29.97 in 10.0 mi West 12.7 mph - N/A   Clear
1:56 AM 37.9 °F 30.0 °F 21.9 °F 53% 29.98 in 10.0 mi West 12.7 mph - N/A   Clear
2:56 AM 37.0 °F 29.3 °F 21.9 °F 54% 29.97 in 10.0 mi West 11.5 mph - N/A   Clear
3:56 AM 35.1 °F 27.9 °F 21.9 °F 59% 29.97 in 10.0 mi West 9.2 mph - N/A   Clear
4:56 AM 34.0 °F 26.6 °F 23.0 °F 64% 29.97 in 10.0 mi West 9.2 mph - N/A   Clear
5:56 AM 34.0 °F 26.6 °F 23.0 °F 64% 29.97 in 10.0 mi West 9.2 mph - N/A   Clear
6:56 AM 33.1 °F 25.5 °F 23.0 °F 66% 29.99 in 10.0 mi West 9.2 mph - N/A   Clear
7:56 AM 34.0 °F 27.2 °F 24.1 °F 67% 30.01 in 10.0 mi West 8.1 mph - N/A   Clear
8:56 AM 39.0 °F 31.0 °F 24.1 °F 55% 30.02 in 10.0 mi West 13.8 mph - N/A   Clear
9:56 AM 43.0 °F 37.2 °F 24.1 °F 47% 30.03 in 10.0 mi WNW 10.4 mph - N/A   Clear
10:56 AM 45.0 °F 38.5 °F 23.0 °F 42% 30.04 in 10.0 mi WNW 13.8 mph - N/A   Partly Cloudy
11:56 AM 46.9 °F - 24.1 °F 41% 30.04 in 10.0 mi WNW 5.8 mph - N/A   Scattered Clouds
12:56 PM 48.9 °F - 23.0 °F 36% 30.04 in 10.0 mi NW 13.8 mph - N/A   Mostly Cloudy
1:56 PM 48.0 °F - 23.0 °F 37% 30.05 in 10.0 mi NW 10.4 mph 17.3 mph N/A   Overcast
2:56 PM 52.0 °F - 24.1 °F 34% 30.04 in 10.0 mi WNW 11.5 mph - N/A   Mostly Cloudy
3:56 PM 52.0 °F - 24.1 °F 34% 30.04 in 10.0 mi West 16.1 mph 23.0 mph N/A   Scattered Clouds
4:56 PM 53.1 °F - 24.1 °F 32% 30.05 in 10.0 mi West 17.3 mph 21.9 mph N/A   Mostly Cloudy
5:56 PM 51.1 °F - 23.0 °F 33% 30.06 in 10.0 mi WNW 12.7 mph - N/A   Mostly Cloudy
6:56 PM 50.0 °F - 21.9 °F 33% 30.08 in 10.0 mi West 12.7 mph - N/A   Scattered Clouds
7:56 PM 46.9 °F - 25.0 °F 42% 30.11 in 10.0 mi West 4.6 mph - N/A   Scattered Clouds
8:56 PM 44.1 °F 40.8 °F 27.0 °F 51% 30.13 in 10.0 mi West 5.8 mph - N/A   Scattered Clouds
9:56 PM 41.0 °F 38.0 °F 28.0 °F 60% 30.16 in 10.0 mi WNW 4.6 mph - N/A   Scattered Clouds
10:56 PM 44.1 °F 39.0 °F 24.1 °F 45% 30.19 in 10.0 mi NW 9.2 mph - N/A   Partly Cloudy
11:56 PM 43.0 °F 37.7 °F 23.0 °F 45% 30.20 in 10.0 mi NW 9.2 mph - N/A   Clear